EW2821 Weather Reports


Display with metric or nautical units.
time (UTC)temp
F
wind
direction
speed
MPH
gust
MPH
rain 1hr
in
rain 24hr
in
rain mn
in
humidity
%
barometer
mb
20260831160013 83 251 3.0 9.0 0.00 0.00 0.00 80 1019.7
20260831154510 81 218 4.0 11.0 0.00 0.00 0.00 80 1019.7
20260831153010 81 229 3.0 8.0 0.00 0.00 0.00 81 1019.7
20260831151507 81 268 4.0 8.0 0.00 0.00 0.00 80 1019.6
20260831150003 79 201 3.0 7.0 0.00 0.00 0.00 84 1019.6
20260831144605 79 213 3.0 8.0 0.00 0.00 0.00 83 1019.5
20260831143104 78 237 2.0 7.0 0.00 0.00 0.00 83 1019.4
20260831141600 78 224 3.0 7.0 0.00 0.00 0.00 83 1019.3
20260831140057 78 220 3.0 8.0 0.00 0.00 0.00 84 1019.3
20260831134554 76 221 4.0 6.0 0.00 0.00 0.00 87 1019.2
20260831133045 74 183 2.0 4.0 0.00 0.00 0.00 90 1019.3
20260831131541 73 177 2.0 6.0 0.00 0.00 0.00 90 1019.3
20260831130037 73 174 2.0 6.0 0.00 0.00 0.00 91 1019.3
20260831124550 72 170 2.0 5.0 0.00 0.00 0.00 94 1019.1
20260831123030 70 152 1.0 2.0 0.00 0.00 0.00 94 1019.1
20260831121528 69 152 1.0 2.0 0.00 0.00 0.00 95 1019.0
20260831120027 69 152 0.0 2.0 0.00 0.00 0.00 95 1019.0
20260831114536 68 152 1.0 3.0 0.00 0.00 0.00 95 1018.9
20260831113021 68 151 1.0 2.0 0.00 0.00 0.00 95 1018.9
20260831111519 68 151 1.0 2.0 0.00 0.00 0.00 95 1018.9
20260831110020 68 151 1.0 2.0 0.00 0.00 0.00 94 1018.7
20260831104528 69 151 0.0 2.0 0.00 0.01 0.00 93 1018.7
20260831103021 69 162 1.0 3.0 0.00 0.01 0.00 93 1018.4
20260831101517 69 232 2.0 3.0 0.00 0.01 0.00 95 1018.3
20260831100016 68 233 1.0 2.0 0.00 0.01 0.00 95 1018.3
20260831094516 68 234 0.0 2.0 0.00 0.01 0.00 96 1018.2
20260831093021 68 130 0.0 0.0 0.00 0.01 0.00 95 1018.2
20260831091513 68 130 0.0 1.0 0.00 0.01 0.00 96 1018.3
20260831090014 68 124 0.0 2.0 0.00 0.01 0.00 96 1018.3
20260831084513 68 109 0.0 0.0 0.00 0.01 0.00 96 1018.4
20260831083022 68 109 0.0 0.0 0.00 0.01 0.00 95 1018.4
20260831081512 68 109 0.0 2.0 0.00 0.01 0.00 95 1018.4
20260831080014 68 109 0.0 1.0 0.00 0.01 0.00 95 1018.2
20260831074510 68 162 0.0 1.0 0.00 0.01 0.00 94 1018.2
20260831073008 69 168 0.0 0.0 0.00 0.01 0.00 94 1018.1
20260831071522 69 169 0.0 1.0 0.00 0.01 0.00 93 1018.2
20260831070011 70 127 0.0 2.0 0.00 0.01 0.00 92 1018.2
20260831064505 70 128 2.0 5.0 0.00 0.01 0.00 93 1018.0
20260831063003 70 121 3.0 4.0 0.00 0.01 0.00 94 1018.2
20260831061501 70 118 0.0 2.0 0.00 0.01 0.00 93 1018.5
20260831060104 70 131 2.0 4.0 0.00 0.01 0.00 93 1018.5
20260831054559 70 125 0.0 2.0 0.00 0.01 0.00 92 1018.7
20260831053059 71 145 2.0 4.0 0.00 0.01 0.00 92 1018.6
20260831051556 71 144 2.0 4.0 0.00 0.01 0.00 92 1018.8
20260831050111 71 170 0.0 2.0 0.00 0.01 0.00 91 1018.9
20260831044614 71 141 3.0 7.0 0.00 0.01 0.00 91 1018.6
20260831043050 71 148 4.0 9.0 0.00 0.01 0.00 91 1018.4
20260831041602 71 150 6.0 8.0 0.00 0.01 0.00 91 1018.5
20260831040046 71 144 3.0 7.0 0.00 0.01 0.00 93 1018.4
20260831034544 71 163 3.0 6.0 0.00 0.01 0.01 94 1018.5
20260831033044 70 193 2.0 4.0 0.00 0.01 0.01 95 1018.7
20260831031547 70 193 1.0 4.0 0.00 0.01 0.01 96 1018.8
20260831030043 69 202 0.0 3.0 0.00 0.01 0.01 96 1018.8
20260831024607 69 202 0.0 0.0 0.00 0.01 0.01 96 1018.8
20260831023042 69 202 0.0 0.0 0.00 0.01 0.01 95 1018.9
20260831021543 69 202 0.0 0.0 0.00 0.01 0.01 95 1018.8
20260831014558 69 202 0.0 1.0 0.00 0.01 0.01 94 1018.6
20260831013040 70 202 0.0 2.0 0.00 0.01 0.01 94 1018.5
20260831011539 70 205 0.0 1.0 0.00 0.01 0.01 94 1018.4
20260831010046 71 205 0.0 0.0 0.00 0.01 0.01 93 1018.3
20260831004539 72 205 0.0 2.0 0.00 0.01 0.01 93 1018.3
20260831003039 73 205 0.0 0.0 0.00 0.01 0.01 91 1018.4
20260831001547 74 205 0.0 0.0 0.00 0.01 0.01 91 1018.4
20260831000038 75 205 0.0 0.0 0.00 0.01 0.01 90 1018.4
20260830234603 77 205 0.0 0.0 0.00 0.01 0.01 87 1018.2
20260830233037 78 205 0.0 0.0 0.00 0.01 0.01 86 1018.3
20260830231537 79 205 0.0 2.0 0.00 0.01 0.01 84 1018.5
20260830230039 81 205 1.0 2.0 0.00 0.01 0.01 78 1018.3
20260830224540 81 203 0.0 2.0 0.00 0.01 0.01 75 1018.0
20260830223037 81 211 0.0 1.0 0.00 0.01 0.01 78 1018.1
20260830221532 81 211 0.0 3.0 0.00 0.01 0.01 75 1018.0
20260830220022 81 219 5.0 8.0 0.00 0.01 0.01 73 1017.7
20260830214623 81 176 3.0 6.0 0.00 0.01 0.01 76 1017.7
20260830213051 81 184 2.0 5.0 0.00 0.01 0.01 75 1017.8
20260830211554 80 187 4.0 8.0 0.00 0.01 0.01 75 1017.9
20260830210024 80 193 3.0 8.0 0.00 0.01 0.01 76 1018.1
20260830204524 79 197 4.0 7.0 0.00 0.01 0.01 76 1018.2
20260830203056 78 193 3.0 6.0 0.00 0.01 0.01 78 1018.3
20260830201611 78 179 3.0 7.0 0.00 0.01 0.01 77 1018.2
20260830200053 79 174 5.0 11.0 0.00 0.01 0.01 75 1018.3
20260830194553 78 185 5.0 11.0 0.00 0.01 0.01 75 1018.5
20260830193050 78 167 7.0 12.0 0.00 0.01 0.01 73 1018.6
20260830191550 80 182 6.0 9.0 0.00 0.01 0.01 72 1019.2
20260830190046 80 183 5.0 8.0 0.00 0.01 0.01 72 1019.5
20260830184545 80 172 4.0 7.0 0.00 0.01 0.01 72 1019.8
20260830183045 81 180 3.0 4.0 0.00 0.01 0.01 72 1020.1
20260830181602 81 197 1.0 3.0 0.00 0.01 0.01 67 1020.3
20260830180045 81 197 1.0 4.0 0.00 0.01 0.01 67 1020.6
20260830174642 81 195 2.0 5.0 0.00 0.01 0.01 70 1020.9
20260830173038 80 269 0.0 0.0 0.00 0.01 0.01 74 1021.1
20260830171538 80 269 0.0 2.0 0.00 0.01 0.01 75 1021.2
20260830170036 80 269 1.0 3.0 0.00 0.01 0.01 72 1021.3
20260830164538 80 269 1.0 3.0 0.00 0.01 0.01 73 1021.4
20260830163003 79 270 1.0 4.0 0.00 0.01 0.01 74 1021.5
20260830161535 79 270 1.0 3.0 0.00 0.01 0.01 75 1021.5